Flinterbirka — PHFQ — position and weather

sailwx.info

Track history (hours):
 
Tides and Currents Weather Stations Pressure Air Temp Water Temp Dewpoint Dewpoint Depression Visibility Wind Speed Wind Dir Waves Ship Positions

Flinterbirka

Last reported at 2014-Oct-19 17:32 UTC. Time now 2014-Oct-23 00:55 UTC.
Position N 55°58' E 016°31'.

Length 81 m; draft 3.9 m.

Type: Cargo ship. MMSI: 246525000.

Date/timePositionNaut miles runAvg speedWind from/ knotsBaromVisibWave heightAir tempDewpointWater temp
2014-Oct-19 17:32N 55°58' E 016°31'5410.8
2014-Oct-19 12:33N 55°32' E 015°08'1111.0
2014-Oct-19 11:33N 55°27' E 014°51'1110.6
2014-Oct-19 10:33N 55°21' E 014°35'1110.6
2014-Oct-19 09:29N 55°12' E 014°23'4510.3
2014-Oct-19 05:09N 55°14' E 013°05'610.8
2014-Oct-19 04:33N 55°15' E 012°53'10 9.8
2014-Oct-19 03:33N 55°19' E 012°38'1010.1
2014-Oct-19 02:34N 55°29' E 012°41'10 9.7
2014-Oct-19 01:34N 55°39' E 012°41'10 9.7
2014-Oct-19 00:33N 55°49' E 012°41'10 9.8
2014-Oct-18 23:33N 55°58' E 012°38'8 7.8
2014-Oct-18 22:34N 56°06' E 012°34'8 8.5
2014-Oct-18 21:33N 56°13' E 012°25'10 9.8
2014-Oct-18 20:33N 56°21' E 012°15'9 9.3
2014-Oct-18 19:34N 56°29' E 012°07'10 9.8
2014-Oct-18 18:33N 56°38' E 011°58'9 9.5
2014-Oct-18 17:33N 56°46' E 011°51'9 9.4
2014-Oct-18 16:33N 56°55' E 011°45'10 9.6
2014-Oct-18 15:33N 57°04' E 011°39'10 9.5
2014-Oct-18 14:33N 57°13' E 011°34'9 9.2
2014-Oct-18 13:33N 57°22' E 011°28'9 9.1
2014-Oct-18 12:34N 57°30' E 011°20'9 9.2
2014-Oct-18 11:33N 57°36' E 011°07'1010.1
2014-Oct-18 10:33N 57°43' E 010°53'1010.0
2014-Oct-18 09:34N 57°47' E 010°36'1212.3
2014-Oct-18 08:33N 57°43' E 010°14'40010.5
2014-Oct-16 18:33N 53°12' E 001°35'1110.5
2014-Oct-16 17:33N 53°05' E 001°22'  
2014-Oct-13 05:05N 53°34' E 000°40'2 2.5
2014-Oct-13 04:27N 53°34' E 000°38'2 2.4
2014-Oct-13 03:33N 53°33' E 000°34'3 2.5
2014-Oct-13 02:31N 53°33' E 000°30'3 2.9
2014-Oct-13 01:34N 53°32' E 000°25'7 7.0
2014-Oct-13 00:33N 53°33' E 000°13'1111.4
2014-Oct-12 23:33N 53°36' W 000°05'1211.8
2014-Oct-12 22:33N 53°43' W 000°22'9 9.3
2014-Oct-12 21:33N 53°43' W 000°37'  
Track history (hours):
 
Tides and Currents Weather Stations Pressure Air Temp Water Temp Dewpoint Dewpoint Depression Visibility Wind Speed Wind Dir Waves Ship Positions

Flinterbirka

Last reported at 2014-Oct-19 17:32 UTC. Time now 2014-Oct-23 00:55 UTC.
Position N 55°58' E 016°31'.

Length 81 m; draft 3.9 m.

Type: Cargo ship. MMSI: 246525000.

Date/timePositionNaut miles runAvg speedWind from/ knotsBaromVisibWave heightAir tempDewpointWater temp
2014-Oct-19 17:32N 55°58' E 016°31'5410.8
2014-Oct-19 12:33N 55°32' E 015°08'1111.0
2014-Oct-19 11:33N 55°27' E 014°51'1110.6
2014-Oct-19 10:33N 55°21' E 014°35'1110.6
2014-Oct-19 09:29N 55°12' E 014°23'4510.3
2014-Oct-19 05:09N 55°14' E 013°05'610.8
2014-Oct-19 04:33N 55°15' E 012°53'10 9.8
2014-Oct-19 03:33N 55°19' E 012°38'1010.1
2014-Oct-19 02:34N 55°29' E 012°41'10 9.7
2014-Oct-19 01:34N 55°39' E 012°41'10 9.7
2014-Oct-19 00:33N 55°49' E 012°41'10 9.8
2014-Oct-18 23:33N 55°58' E 012°38'8 7.8
2014-Oct-18 22:34N 56°06' E 012°34'8 8.5
2014-Oct-18 21:33N 56°13' E 012°25'10 9.8
2014-Oct-18 20:33N 56°21' E 012°15'9 9.3
2014-Oct-18 19:34N 56°29' E 012°07'10 9.8
2014-Oct-18 18:33N 56°38' E 011°58'9 9.5
2014-Oct-18 17:33N 56°46' E 011°51'9 9.4
2014-Oct-18 16:33N 56°55' E 011°45'10 9.6
2014-Oct-18 15:33N 57°04' E 011°39'10 9.5
2014-Oct-18 14:33N 57°13' E 011°34'9 9.2
2014-Oct-18 13:33N 57°22' E 011°28'9 9.1
2014-Oct-18 12:34N 57°30' E 011°20'9 9.2
2014-Oct-18 11:33N 57°36' E 011°07'1010.1
2014-Oct-18 10:33N 57°43' E 010°53'1010.0
2014-Oct-18 09:34N 57°47' E 010°36'1212.3
2014-Oct-18 08:33N 57°43' E 010°14'40010.5
2014-Oct-16 18:33N 53°12' E 001°35'1110.5
2014-Oct-16 17:33N 53°05' E 001°22'  
2014-Oct-13 05:05N 53°34' E 000°40'2 2.5
2014-Oct-13 04:27N 53°34' E 000°38'2 2.4
2014-Oct-13 03:33N 53°33' E 000°34'3 2.5
2014-Oct-13 02:31N 53°33' E 000°30'3 2.9
2014-Oct-13 01:34N 53°32' E 000°25'7 7.0
2014-Oct-13 00:33N 53°33' E 000°13'1111.4
2014-Oct-12 23:33N 53°36' W 000°05'1211.8
2014-Oct-12 22:33N 53°43' W 000°22'9 9.3
2014-Oct-12 21:33N 53°43' W 000°37'  

Dump ship's entire track history